User: anonymous   Login
Location: Unspecified
(0.0000°N, 0.0000°E)
Time: 18:41:46
(UTC+00:00)
Language:

nSIGHT-1 - Orbit

View from above orbital plane
View from above orbital plane
View from above satellite
View from above satellite

Ground track
Ground track

The orbit data is extracted from the following two-line orbital elements,

1 42726U 98067MF  19077.38868088  .00020910  00000-0  19228-3 0  9991
2 42726  51.6372  59.5788 0004550 165.0665 195.0467 15.67635707103320
Epoch (UTC): 18 March 2019 09:19:42
Eccentricity: 0.0004550
inclination: 51.6372°
perigee height: 362 km
apogee height: 369 km
right ascension of ascending node: 59.5788°
argument of perigee: 165.0665°
revolutions per day: 15.67635707
mean anomaly at epoch: 195.0467°
orbit number at epoch: 10332

The dashed part of the orbit path shows where the satellite is in the earth's shadow,  

DLR